VOE6CU LEZL-LEBB

Flight info

Callsign VOE6CU
Flight time 1h 3m
Altitude 34000
Route HIJ DCT PARKA DCT TLD DCT SIE DCT EDIGO DCT DGO
Aircraft A320/M-SDE3FGHIRWY/LB1

Departure

Time 2026-05-07 17:23
Airport Seville Airport (LEZL)

Arrival

Time 2026-05-07 18:26
Airport Bilbao Airport (LEBB)
Time Latitude Longitude Altitude Speed Heading
2026-05-07 16:57 37.42277 -5.89881 94 ft 0 kts 315°
2026-05-07 17:14 37.42275 -5.89880 93 ft 2 kts 315°
2026-05-07 17:14 37.42259 -5.89860 95 ft 3 kts 316°
2026-05-07 17:14 37.42244 -5.89839 93 ft 3 kts 296°
2026-05-07 17:14 37.42236 -5.89819 93 ft 3 kts 322°
2026-05-07 17:15 37.42221 -5.89815 94 ft 3 kts 31°
2026-05-07 17:15 37.42204 -5.89833 94 ft 3 kts 44°
2026-05-07 17:15 37.42201 -5.89837 94 ft 0 kts 44°
2026-05-07 17:17 37.42221 -5.89813 94 ft 7 kts 44°
2026-05-07 17:17 37.42255 -5.89770 93 ft 6 kts 47°
2026-05-07 17:17 37.42258 -5.89713 94 ft 8 kts 119°
2026-05-07 17:18 37.42223 -5.89665 94 ft 7 kts 134°
2026-05-07 17:18 37.42174 -5.89603 95 ft 14 kts 134°
2026-05-07 17:18 37.42094 -5.89500 99 ft 18 kts 135°
2026-05-07 17:18 37.42018 -5.89402 99 ft 11 kts 135°
2026-05-07 17:19 37.41983 -5.89328 100 ft 11 kts 98°
2026-05-07 17:19 37.41982 -5.89192 100 ft 20 kts 90°
2026-05-07 17:19 37.41983 -5.88992 101 ft 24 kts 89°
2026-05-07 17:19 37.41984 -5.88778 103 ft 25 kts 90°
2026-05-07 17:20 37.41986 -5.88559 104 ft 26 kts 90°
2026-05-07 17:20 37.41986 -5.88331 105 ft 26 kts 90°
2026-05-07 17:20 37.41987 -5.88096 106 ft 27 kts 89°
2026-05-07 17:20 37.41987 -5.87854 108 ft 28 kts 90°
2026-05-07 17:21 37.41989 -5.87620 109 ft 17 kts 88°
2026-05-07 17:21 37.41974 -5.87505 110 ft 12 kts 114°
2026-05-07 17:21 37.41934 -5.87440 112 ft 7 kts 147°
2026-05-07 17:21 37.41897 -5.87428 112 ft 7 kts 173°
2026-05-07 17:22 37.41837 -5.87452 113 ft 12 kts 218°
2026-05-07 17:22 37.41802 -5.87557 114 ft 16 kts 264°
2026-05-07 17:22 37.41797 -5.87832 111 ft 61 kts 270°
2026-05-07 17:22 37.41795 -5.88643 105 ft 122 kts 270°
2026-05-07 17:23 37.41792 -5.89937 126 ft 168 kts 270°
2026-05-07 17:23 37.41787 -5.91396 769 ft 165 kts 268°
2026-05-07 17:23 37.42034 -5.92814 1378 ft 176 kts 301°
2026-05-07 17:23 37.42903 -5.94018 1775 ft 197 kts 315°
2026-05-07 17:24 37.43946 -5.95186 2269 ft 209 kts 317°
2026-05-07 17:24 37.45110 -5.96463 2583 ft 235 kts 317°
2026-05-07 17:24 37.46396 -5.97898 3045 ft 259 kts 317°
2026-05-07 17:24 37.47757 -5.99438 3816 ft 267 kts 317°
2026-05-07 17:25 37.49143 -6.01025 4721 ft 271 kts 316°
2026-05-07 17:25 37.50538 -6.02643 5619 ft 274 kts 316°
2026-05-07 17:25 37.51943 -6.04289 6469 ft 278 kts 316°
2026-05-07 17:25 37.53367 -6.05964 7317 ft 282 kts 316°
2026-05-07 17:26 37.54811 -6.07663 8153 ft 286 kts 316°
2026-05-07 17:26 37.56294 -6.09359 8983 ft 291 kts 322°
2026-05-07 17:26 37.58111 -6.10502 9759 ft 297 kts 345°
2026-05-07 17:26 37.60206 -6.10688 10243 ft 315 kts
2026-05-07 17:27 37.62284 -6.09689 10483 ft 337 kts 35°
2026-05-07 17:27 37.64162 -6.07709 10759 ft 356 kts 42°
2026-05-07 17:27 37.65900 -6.05759 11285 ft 364 kts 42°
2026-05-07 17:27 37.67805 -6.03616 11987 ft 368 kts 42°
2026-05-07 17:28 37.69728 -6.01463 12706 ft 371 kts 41°
2026-05-07 17:28 37.71674 -5.99296 13394 ft 374 kts 41°
2026-05-07 17:28 37.73663 -5.97147 14025 ft 378 kts 36°
2026-05-07 17:28 37.75949 -5.95485 14649 ft 381 kts 26°
2026-05-07 17:29 37.78319 -5.93959 15283 ft 384 kts 26°
2026-05-07 17:29 37.80712 -5.92434 15901 ft 387 kts 25°
2026-05-07 17:29 37.83129 -5.90905 16504 ft 390 kts 25°
2026-05-07 17:29 37.85563 -5.89363 17100 ft 393 kts 25°
2026-05-07 17:30 37.88019 -5.87801 17683 ft 396 kts 25°
2026-05-07 17:30 37.90453 -5.86249 18263 ft 399 kts 25°
2026-05-07 17:30 37.92942 -5.84656 18804 ft 402 kts 25°
2026-05-07 17:30 37.95447 -5.83049 19355 ft 406 kts 24°
2026-05-07 17:31 37.97976 -5.81427 19891 ft 409 kts 24°
2026-05-07 17:31 38.00521 -5.79796 20402 ft 411 kts 24°
2026-05-07 17:31 38.03086 -5.78157 20879 ft 415 kts 24°
2026-05-07 17:31 38.05667 -5.76502 21356 ft 418 kts 24°
2026-05-07 17:32 38.08270 -5.74827 21817 ft 420 kts 24°
2026-05-07 17:32 38.10882 -5.73140 22265 ft 423 kts 24°
2026-05-07 17:32 38.13518 -5.71437 22683 ft 426 kts 24°
2026-05-07 17:32 38.16169 -5.69727 23084 ft 429 kts 24°
2026-05-07 17:33 38.18840 -5.68006 23479 ft 432 kts 24°
2026-05-07 17:33 38.21525 -5.66276 23861 ft 434 kts 24°
2026-05-07 17:33 38.24228 -5.64534 24233 ft 437 kts 24°
2026-05-07 17:33 38.26941 -5.62782 24581 ft 439 kts 24°
2026-05-07 17:34 38.29674 -5.61016 24926 ft 441 kts 24°
2026-05-07 17:34 38.32418 -5.59241 25269 ft 444 kts 24°
2026-05-07 17:34 38.35177 -5.57454 25598 ft 446 kts 24°
2026-05-07 17:34 38.37950 -5.55657 25924 ft 448 kts 24°
2026-05-07 17:35 38.40732 -5.53850 26245 ft 451 kts 24°
2026-05-07 17:35 38.43532 -5.52030 26561 ft 452 kts 24°
2026-05-07 17:35 38.46342 -5.50202 26863 ft 454 kts 24°
2026-05-07 17:35 38.49164 -5.48363 27136 ft 456 kts 24°
2026-05-07 17:36 38.51997 -5.46514 27404 ft 458 kts 24°
2026-05-07 17:36 38.54841 -5.44657 27671 ft 460 kts 24°
2026-05-07 17:36 38.57697 -5.42794 27932 ft 462 kts 24°
2026-05-07 17:36 38.60565 -5.40923 28174 ft 464 kts 24°
2026-05-07 17:37 38.63441 -5.39044 28416 ft 465 kts 24°
2026-05-07 17:37 38.66322 -5.37156 28645 ft 467 kts 24°
2026-05-07 17:37 38.69218 -5.35263 28878 ft 467 kts 23°
2026-05-07 17:37 38.72111 -5.33368 29189 ft 467 kts 23°
2026-05-07 17:38 38.74995 -5.31474 29514 ft 466 kts 23°
2026-05-07 17:38 38.77875 -5.29581 29827 ft 465 kts 23°
2026-05-07 17:38 38.80753 -5.27690 30143 ft 464 kts 23°
2026-05-07 17:38 38.83623 -5.25805 30453 ft 463 kts 23°
2026-05-07 17:39 38.86484 -5.23918 30750 ft 462 kts 23°
2026-05-07 17:39 38.89343 -5.22032 31025 ft 462 kts 23°
2026-05-07 17:39 38.92203 -5.20148 31303 ft 462 kts 23°
2026-05-07 17:39 38.95054 -5.18266 31591 ft 461 kts 23°
2026-05-07 17:40 38.97903 -5.16385 31866 ft 460 kts 23°
2026-05-07 17:40 39.00721 -5.14411 32147 ft 463 kts 28°
2026-05-07 17:40 39.03430 -5.12173 32413 ft 463 kts 29°
2026-05-07 17:40 39.06135 -5.09933 32694 ft 462 kts 29°
2026-05-07 17:41 39.08837 -5.07697 32967 ft 462 kts 29°
2026-05-07 17:41 39.11544 -5.05459 33226 ft 462 kts 29°
2026-05-07 17:41 39.14246 -5.03221 33491 ft 461 kts 29°
2026-05-07 17:41 39.16948 -5.00986 33740 ft 461 kts 29°
2026-05-07 17:42 39.19647 -4.98754 33864 ft 461 kts 29°
2026-05-07 17:42 39.22348 -4.96514 33894 ft 461 kts 29°
2026-05-07 17:42 39.27703 -4.92059 33888 ft 461 kts 29°
2026-05-07 17:43 39.33095 -4.87565 33885 ft 462 kts 29°
2026-05-07 17:43 39.38490 -4.83064 33900 ft 461 kts 29°
2026-05-07 17:44 39.43883 -4.78560 33904 ft 462 kts 29°
2026-05-07 17:44 39.49278 -4.74035 33915 ft 462 kts 30°
2026-05-07 17:45 39.54673 -4.69510 33913 ft 462 kts 29°
2026-05-07 17:45 39.60079 -4.64977 33916 ft 463 kts 30°
2026-05-07 17:46 39.65476 -4.60425 33921 ft 463 kts 30°
2026-05-07 17:46 39.70879 -4.55869 33924 ft 463 kts 30°
2026-05-07 17:47 39.76279 -4.51307 33924 ft 463 kts 30°
2026-05-07 17:47 39.81684 -4.46725 33925 ft 464 kts 30°
2026-05-07 17:48 39.87088 -4.42135 33929 ft 464 kts 30°
2026-05-07 17:48 39.92496 -4.37529 33934 ft 465 kts 30°
2026-05-07 17:49 39.97981 -4.33109 33935 ft 462 kts 22°
2026-05-07 17:49 40.03805 -4.29588 33951 ft 462 kts 22°
2026-05-07 17:50 40.09631 -4.26041 33935 ft 463 kts 22°
2026-05-07 17:50 40.15457 -4.22472 33944 ft 462 kts 22°
2026-05-07 17:51 40.21275 -4.18896 33937 ft 462 kts 22°
2026-05-07 17:51 40.27095 -4.15325 33914 ft 462 kts 22°
2026-05-07 17:52 40.32918 -4.11756 33915 ft 462 kts 22°
2026-05-07 17:52 40.38724 -4.08183 33917 ft 462 kts 22°
2026-05-07 17:53 40.43561 -4.05200 33925 ft 462 kts 22°
2026-05-07 17:53 40.49372 -4.01614 33935 ft 461 kts 22°
2026-05-07 17:54 40.55183 -3.98017 33932 ft 462 kts 23°
2026-05-07 17:54 40.61013 -3.94398 33933 ft 463 kts 23°
2026-05-07 17:55 40.66844 -3.90771 33946 ft 464 kts 23°
2026-05-07 17:55 40.72678 -3.87132 33938 ft 464 kts 23°
2026-05-07 17:56 40.78517 -3.83496 33950 ft 464 kts 23°
2026-05-07 17:56 40.84356 -3.79852 33945 ft 464 kts 24°
2026-05-07 17:57 40.90198 -3.76198 33940 ft 465 kts 24°
2026-05-07 17:57 40.96038 -3.72537 33947 ft 465 kts 24°
2026-05-07 17:58 41.01879 -3.68868 33956 ft 465 kts 24°
2026-05-07 17:58 41.07718 -3.65180 33938 ft 465 kts 24°
2026-05-07 17:59 41.13561 -3.61488 33932 ft 465 kts 24°
2026-05-07 17:59 41.19450 -3.57953 33934 ft 465 kts 21°
2026-05-07 18:00 41.25451 -3.54749 33934 ft 465 kts 20°
2026-05-07 18:00 41.31465 -3.51592 33933 ft 465 kts 21°
2026-05-07 18:01 41.37456 -3.48345 33934 ft 465 kts 21°
2026-05-07 18:01 41.43423 -3.45043 33936 ft 465 kts 21°
2026-05-07 18:02 41.52389 -3.40100 33940 ft 465 kts 21°
2026-05-07 18:03 41.58373 -3.36812 33937 ft 465 kts 21°
2026-05-07 18:03 41.64351 -3.33508 33945 ft 465 kts 21°
2026-05-07 18:04 41.70330 -3.30200 33953 ft 465 kts 21°
2026-05-07 18:04 41.76308 -3.26887 33938 ft 465 kts 22°
2026-05-07 18:05 41.82287 -3.23560 33946 ft 466 kts 22°
2026-05-07 18:05 41.88273 -3.20219 33946 ft 466 kts 22°
2026-05-07 18:06 41.94260 -3.16872 33956 ft 466 kts 21°
2026-05-07 18:06 42.00233 -3.13523 33946 ft 465 kts 22°
2026-05-07 18:07 42.06214 -3.10173 33945 ft 467 kts 22°
2026-05-07 18:07 42.12161 -3.06839 33935 ft 464 kts 21°
2026-05-07 18:08 42.18093 -3.03512 33147 ft 461 kts 21°
2026-05-07 18:08 42.21054 -3.01840 32271 ft 462 kts 21°
2026-05-07 18:08 42.24025 -3.00158 31365 ft 464 kts 21°
2026-05-07 18:08 42.27004 -2.98468 30442 ft 466 kts 22°
2026-05-07 18:09 42.29998 -2.96768 29491 ft 467 kts 22°
2026-05-07 18:09 42.33001 -2.95062 28476 ft 469 kts 22°
2026-05-07 18:09 42.36021 -2.93347 27515 ft 470 kts 22°
2026-05-07 18:09 42.39017 -2.91649 26889 ft 463 kts 22°
2026-05-07 18:10 42.41973 -2.89981 26201 ft 458 kts 21°
2026-05-07 18:10 42.44984 -2.88674 25516 ft 452 kts 12°
2026-05-07 18:10 42.48068 -2.87969 24844 ft 447 kts
2026-05-07 18:10 42.51154 -2.87753 24194 ft 442 kts
2026-05-07 18:11 42.54213 -2.87589 23538 ft 438 kts
2026-05-07 18:11 42.56225 -2.87483 23106 ft 436 kts
2026-05-07 18:11 42.60251 -2.87272 22076 ft 434 kts
2026-05-07 18:11 42.63296 -2.87110 21161 ft 438 kts
2026-05-07 18:12 42.66336 -2.86945 20482 ft 435 kts
2026-05-07 18:12 42.69348 -2.86829 19834 ft 431 kts 357°
2026-05-07 18:12 42.72304 -2.87270 19219 ft 425 kts 347°
2026-05-07 18:12 42.75125 -2.88363 18603 ft 419 kts 338°
2026-05-07 18:13 42.77739 -2.90054 18001 ft 414 kts 329°
2026-05-07 18:13 42.80230 -2.91994 17398 ft 411 kts 329°
2026-05-07 18:13 42.82702 -2.93912 16816 ft 407 kts 329°
2026-05-07 18:13 42.85154 -2.95810 16249 ft 404 kts 329°
2026-05-07 18:14 42.87587 -2.97690 15696 ft 400 kts 329°
2026-05-07 18:14 42.90004 -2.99560 15119 ft 397 kts 329°
2026-05-07 18:14 42.92396 -3.01411 14554 ft 394 kts 329°
2026-05-07 18:14 42.94769 -3.03251 13979 ft 391 kts 329°
2026-05-07 18:15 42.97122 -3.05077 13410 ft 387 kts 329°
2026-05-07 18:15 42.99450 -3.06886 12832 ft 384 kts 329°
2026-05-07 18:15 43.01756 -3.08683 12222 ft 381 kts 329°
2026-05-07 18:15 43.04042 -3.10469 11599 ft 377 kts 329°
2026-05-07 18:16 43.06314 -3.12245 10964 ft 374 kts 329°
2026-05-07 18:16 43.08374 -3.13856 10373 ft 371 kts 330°
2026-05-07 18:16 43.10203 -3.15285 10021 ft 366 kts 330°
2026-05-07 18:16 43.11922 -3.16629 9892 ft 353 kts 330°
2026-05-07 18:17 43.13991 -3.18248 9906 ft 333 kts 330°
2026-05-07 18:17 43.15948 -3.19781 9910 ft 315 kts 330°
2026-05-07 18:17 43.17812 -3.21245 9808 ft 303 kts 330°
2026-05-07 18:17 43.19612 -3.22659 9606 ft 295 kts 330°
2026-05-07 18:18 43.21381 -3.24051 9289 ft 292 kts 330°
2026-05-07 18:18 43.23137 -3.25430 8872 ft 288 kts 330°
2026-05-07 18:18 43.24881 -3.26755 8185 ft 286 kts 336°
2026-05-07 18:18 43.26770 -3.27542 7521 ft 283 kts 352°
2026-05-07 18:19 43.28721 -3.27810 6863 ft 281 kts 356°
2026-05-07 18:19 43.30664 -3.27896 6208 ft 278 kts
2026-05-07 18:19 43.32582 -3.27790 5542 ft 275 kts
2026-05-07 18:19 43.34472 -3.27568 5104 ft 271 kts
2026-05-07 18:20 43.36336 -3.27083 4995 ft 274 kts 18°
2026-05-07 18:20 43.38090 -3.26126 5004 ft 267 kts 25°
2026-05-07 18:20 43.39684 -3.24922 4715 ft 259 kts 43°
2026-05-07 18:20 43.40786 -3.23022 4416 ft 251 kts 60°
2026-05-07 18:21 43.41299 -3.20804 4108 ft 243 kts 94°
2026-05-07 18:21 43.40744 -3.18734 3819 ft 235 kts 131°
2026-05-07 18:21 43.39608 -3.17159 3564 ft 228 kts 129°
2026-05-07 18:21 43.38878 -3.15308 3507 ft 214 kts 114°
2026-05-07 18:22 43.38278 -3.13507 3462 ft 201 kts 116°
2026-05-07 18:22 43.37881 -3.12382 3382 ft 194 kts 116°
2026-05-07 18:22 43.37093 -3.10200 3034 ft 187 kts 117°
2026-05-07 18:22 43.36517 -3.08614 2774 ft 183 kts 117°
2026-05-07 18:23 43.35953 -3.07066 2522 ft 179 kts 117°
2026-05-07 18:23 43.35408 -3.05568 2278 ft 170 kts 117°
2026-05-07 18:23 43.34893 -3.04157 2050 ft 160 kts 117°
2026-05-07 18:23 43.34407 -3.02823 1827 ft 152 kts 117°
2026-05-07 18:24 43.33950 -3.01569 1650 ft 144 kts 117°
2026-05-07 18:24 43.33507 -3.00354 1450 ft 141 kts 117°
2026-05-07 18:24 43.33069 -2.99151 1266 ft 141 kts 117°
2026-05-07 18:24 43.32631 -2.97954 1070 ft 140 kts 117°
2026-05-07 18:25 43.32194 -2.96761 889 ft 140 kts 117°
2026-05-07 18:25 43.31760 -2.95567 675 ft 139 kts 117°
2026-05-07 18:25 43.31326 -2.94380 481 ft 139 kts 117°
2026-05-07 18:25 43.30893 -2.93199 295 ft 138 kts 117°
2026-05-07 18:26 43.30466 -2.92031 135 ft 132 kts 117°
2026-05-07 18:26 43.30126 -2.91108 125 ft 69 kts 116°
2026-05-07 18:26 43.29976 -2.90695 125 ft 37 kts 116°
2026-05-07 18:26 43.29929 -2.90474 124 ft 19 kts 96°
2026-05-07 18:27 43.29928 -2.90303 133 ft 17 kts 86°
2026-05-07 18:27 43.29959 -2.90223 132 ft 8 kts 26°
2026-05-07 18:27 43.29996 -2.90247 132 ft 6 kts 309°
2026-05-07 18:27 43.30008 -2.90275 132 ft 5 kts 298°
2026-05-07 18:28 43.30027 -2.90324 132 ft 4 kts 297°
2026-05-07 18:28 43.30038 -2.90353 132 ft 3 kts 297°
2026-05-07 18:28 43.30047 -2.90376 132 ft 2 kts 297°
2026-05-07 18:28 43.30055 -2.90399 132 ft 4 kts 295°
2026-05-07 18:29 43.30074 -2.90453 132 ft 8 kts 296°
2026-05-07 18:29 43.30103 -2.90536 132 ft 10 kts 296°
2026-05-07 18:29 43.30155 -2.90574 132 ft 8 kts 12°
2026-05-07 18:29 43.30201 -2.90539 132 ft 7 kts 30°
2026-05-07 18:30 43.30249 -2.90528 132 ft 8 kts 346°
2026-05-07 18:30 43.30308 -2.90578 132 ft 10 kts 326°
2026-05-07 18:30 43.30353 -2.90643 132 ft 9 kts 298°
2026-05-07 18:30 43.30380 -2.90717 132 ft 9 kts 296°
2026-05-07 18:31 43.30411 -2.90772 132 ft 6 kts 349°
2026-05-07 18:31 43.30448 -2.90753 132 ft 5 kts 27°
2026-05-07 18:31 43.30454 -2.90748 132 ft 1 kts 27°
2026-05-07 18:31 43.30464 -2.90741 132 ft 1 kts 27°
2026-05-07 18:32 43.30469 -2.90738 132 ft 0 kts 27°